FW1341 Weather Reports


Display with metric or nautical units.
time (UTC)temp
F
wind
direction
speed
MPH
gust
MPH
rain 1hr
in
rain 24hr
in
rain mn
in
humidity
%
barometer
mb
20260903203140 93 203 3.0 10.0 0.00 0.00 0.00 59 1010.3
20260903202632 93 218 4.0 10.0 0.00 0.00 0.00 59 1010.4
20260903202133 94 181 3.0 8.0 0.00 0.00 0.00 58 1010.4
20260903201633 94 262 2.0 7.0 0.00 0.00 0.00 58 1010.6
20260903201133 93 262 2.0 7.0 0.00 0.00 0.00 59 1010.7
20260903200634 93 211 2.0 6.0 0.00 0.00 0.00 59 1010.7
20260903200133 93 212 3.0 7.0 0.00 0.00 0.00 58 1010.8
20260903195125 93 338 3.0 9.0 0.00 0.00 0.00 56 1011.0
20260903194623 92 255 4.0 9.0 0.00 0.00 0.00 58 1011.1
20260903194121 92 156 3.0 9.0 0.00 0.00 0.00 57 1011.2
20260903193621 92 240 2.0 8.0 0.00 0.00 0.00 58 1011.1
20260903192614 91 138 3.0 7.0 0.00 0.00 0.00 60 1011.5
20260903192115 91 181 3.0 7.0 0.00 0.00 0.00 60 1011.5
20260903191116 91 212 3.0 7.0 0.00 0.00 0.00 63 1011.4
20260903190616 90 205 3.0 7.0 0.00 0.00 0.00 63 1011.6
20260903190109 91 195 1.0 6.0 0.00 0.00 0.00 62 1011.7
20260903185607 90 342 2.0 5.0 0.00 0.00 0.00 64 1011.8
20260903185108 90 290 3.0 6.0 0.00 0.00 0.00 64 1011.9
20260903184605 90 222 3.0 9.0 0.00 0.00 0.00 64 1012.0
20260903184108 90 200 3.0 9.0 0.00 0.00 0.00 63 1011.9
20260903183608 89 249 3.0 8.0 0.00 0.00 0.00 64 1011.8
20260903183104 89 215 3.0 9.0 0.00 0.01 0.00 64 1011.8
20260903182103 89 235 3.0 7.0 0.00 0.03 0.00 64 1012.0
20260903181105 88 176 2.0 5.0 0.00 0.04 0.00 65 1011.9
20260903180604 88 240 3.0 7.0 0.00 0.05 0.00 66 1011.8
20260903175604 88 299 3.0 9.0 0.00 0.05 0.00 65 1012.0
20260903174602 88 206 2.0 6.0 0.00 0.05 0.00 67 1012.4
20260903174102 87 240 2.0 6.0 0.00 0.05 0.00 68 1012.6
20260903173102 87 253 2.0 6.0 0.00 0.05 0.00 68 1012.9
20260903172603 88 309 2.0 5.0 0.00 0.05 0.00 68 1013.0
20260903172104 87 323 1.0 6.0 0.00 0.05 0.00 68 1013.1
20260903171557 87 328 1.0 6.0 0.00 0.05 0.00 67 1013.2
20260903171055 87 296 2.0 8.0 0.00 0.05 0.00 69 1013.2
20260903170554 85 225 3.0 8.0 0.00 0.05 0.00 71 1013.3
20260903165052 85 180 1.0 8.0 0.00 0.05 0.00 72 1013.3
20260903164552 84 190 2.0 8.0 0.00 0.05 0.00 75 1013.5
20260903164048 83 318 1.0 5.0 0.00 0.05 0.00 76 1013.6
20260903163547 83 255 1.0 5.0 0.00 0.05 0.00 78 1013.6
20260903162543 82 325 1.0 4.0 0.00 0.05 0.00 78 1014.1
20260903162045 82 304 2.0 5.0 0.00 0.05 0.00 79 1014.3
20260903161537 82 354 2.0 8.0 0.00 0.05 0.00 79 1014.4
20260903161035 82 340 2.0 8.0 0.00 0.05 0.00 80 1014.5
20260903160536 82 13 2.0 7.0 0.00 0.05 0.00 81 1014.3
20260903160036 82 358 3.0 13.0 0.00 0.05 0.00 81 1014.5
20260903155536 82 46 3.0 14.0 0.00 0.05 0.00 80 1015.2
20260903155037 83 330 3.0 14.0 0.00 0.05 0.00 80 1015.2
20260903154534 83 330 1.0 8.0 0.00 0.05 0.00 80 1015.0
20260903154033 83 15 1.0 4.0 0.00 0.05 0.00 81 1014.8
20260903153032 83 15 1.0 5.0 0.00 0.05 0.00 81 1014.4
20260903152532 82 235 1.0 5.0 0.00 0.05 0.00 82 1014.2
20260903152031 82 75 1.0 5.0 0.00 0.05 0.00 82 1014.1
20260903151534 82 210 1.0 4.0 0.00 0.05 0.00 83 1014.2
20260903151028 81 228 2.0 6.0 0.00 0.05 0.00 83 1014.2
20260903150528 81 300 2.0 6.0 0.00 0.05 0.00 84 1014.0
20260903150030 81 173 3.0 9.0 0.00 0.05 0.00 84 1014.1
20260903145028 81 236 3.0 8.0 0.00 0.05 0.00 84 1014.1
20260903144528 81 217 3.0 8.0 0.00 0.05 0.00 84 1014.0
20260903144028 81 197 3.0 8.0 0.00 0.05 0.00 85 1014.0
20260903143029 81 210 3.0 7.0 0.00 0.05 0.00 85 1013.8
20260903142527 81 219 3.0 7.0 0.00 0.05 0.00 85 1013.8
20260903142029 80 222 3.0 8.0 0.00 0.05 0.00 86 1013.6
20260903141529 79 160 3.0 8.0 0.00 0.05 0.00 87 1013.6
20260903141027 79 188 2.0 7.0 0.00 0.05 0.00 88 1013.9
20260903140527 78 203 2.0 6.0 0.00 0.05 0.00 88 1013.7
20260903135519 78 218 3.0 6.0 0.00 0.05 0.00 88 1013.5
20260903135015 78 201 3.0 6.0 0.00 0.05 0.00 88 1013.6
20260903134515 78 179 2.0 6.0 0.00 0.05 0.00 88 1013.4
20260903134009 78 215 3.0 7.0 0.00 0.05 0.00 87 1013.4
20260903133508 78 210 2.0 7.0 0.00 0.05 0.00 87 1013.6
20260903133006 78 190 1.0 4.0 0.00 0.05 0.00 87 1013.8
20260903132507 78 217 1.0 4.0 0.00 0.05 0.00 87 1013.9
20260903132006 78 205 0.0 2.0 0.00 0.05 0.00 87 1014.1
20260903131507 78 196 0.0 2.0 0.00 0.05 0.00 87 1014.3
20260903131005 78 177 0.0 2.0 0.00 0.05 0.00 88 1014.4
20260903130505 78 113 0.0 2.0 0.00 0.05 0.00 88 1014.5
20260903130006 78 148 0.0 2.0 0.00 0.05 0.00 89 1014.4
20260903125501 77 131 0.0 2.0 0.00 0.05 0.00 90 1014.5
20260903124459 76 64 0.0 3.0 0.00 0.05 0.00 91 1014.9
20260903124001 76 85 1.0 3.0 0.00 0.05 0.00 91 1014.9
20260903123459 76 123 1.0 5.0 0.00 0.05 0.00 91 1015.0
20260903123000 76 79 1.0 5.0 0.00 0.05 0.00 91 1015.1
20260903122501 76 58 1.0 4.0 0.00 0.05 0.00 92 1015.0
20260903122000 76 96 1.0 4.0 0.00 0.05 0.00 92 1015.1
20260903121501 76 92 1.0 5.0 0.00 0.05 0.00 92 1015.2
20260903120958 76 113 2.0 6.0 0.00 0.05 0.00 92 1015.4
20260903120455 76 101 2.0 6.0 0.00 0.05 0.00 92 1015.3
20260903115951 75 57 2.0 7.0 0.00 0.05 0.00 92 1015.3
20260903115447 75 90 2.0 8.0 0.00 0.05 0.00 92 1015.2
20260903114943 75 27 3.0 8.0 0.00 0.05 0.00 92 1015.4
20260903114440 75 32 3.0 7.0 0.00 0.05 0.00 92 1015.5
20260903113431 75 49 5.0 10.0 0.00 0.05 0.00 93 1015.5
20260903112925 75 29 4.0 10.0 0.00 0.05 0.00 93 1015.4
20260903112419 74 70 2.0 8.0 0.00 0.05 0.00 93 1015.0
20260903111917 74 26 1.0 4.0 0.00 0.05 0.00 93 1014.6
20260903110906 74 78 1.0 4.0 0.00 0.05 0.00 93 1014.4
20260903110403 74 43 1.0 8.0 0.00 0.05 0.00 94 1014.4
20260903105857 74 53 3.0 8.0 0.00 0.05 0.00 94 1014.3
20260903105351 74 64 3.0 7.0 0.00 0.05 0.00 94 1014.3
20260903104845 74 15 2.0 7.0 0.00 0.05 0.00 94 1014.3
20260903104341 74 113 2.0 6.0 0.00 0.05 0.00 94 1013.9
20260903103840 74 43 2.0 6.0 0.00 0.05 0.00 94 1014.0
20260903103340 74 77 2.0 6.0 0.00 0.05 0.00 94 1013.6
20260903102841 74 94 1.0 6.0 0.00 0.05 0.00 94 1013.9
20260903102339 74 101 0.0 2.0 0.00 0.05 0.00 94 1013.5
20260903101838 74 91 0.0 1.0 0.00 0.05 0.00 94 1013.4
20260903101339 74 91 0.0 0.0 0.00 0.05 0.00 94 1013.2
20260903100840 74 92 0.0 1.0 0.00 0.05 0.00 94 1013.2
20260903100335 74 94 0.0 2.0 0.00 0.05 0.00 93 1013.2
20260903095833 74 94 0.0 2.0 0.00 0.05 0.00 93 1013.3
20260903095334 74 91 0.0 0.0 0.00 0.05 0.00 93 1013.3
20260903094834 74 86 0.0 1.0 0.00 0.05 0.00 93 1013.3
20260903094335 74 86 0.0 2.0 0.00 0.05 0.00 93 1013.4
20260903093835 74 86 0.0 2.0 0.00 0.05 0.00 93 1013.4
20260903093330 74 89 1.0 2.0 0.00 0.05 0.00 93 1013.5
20260903092830 75 82 1.0 2.0 0.00 0.05 0.00 93 1013.6
20260903092330 75 81 0.0 2.0 0.00 0.05 0.00 93 1013.6
20260903091329 75 203 0.0 0.0 0.00 0.05 0.00 92 1013.6
20260903090831 75 203 0.0 1.0 0.00 0.05 0.00 92 1013.5
20260903090326 75 203 0.0 1.0 0.00 0.05 0.00 92 1013.6
20260903084325 75 204 0.0 2.0 0.00 0.05 0.00 92 1013.3
20260903083827 75 201 0.0 3.0 0.00 0.05 0.00 92 1013.2
20260903083322 75 215 0.0 3.0 0.00 0.05 0.00 93 1013.2
20260903082821 75 226 1.0 3.0 0.00 0.05 0.00 92 1013.3
20260903082322 75 201 1.0 3.0 0.00 0.05 0.00 92 1013.2
20260903081822 75 201 0.0 3.0 0.00 0.05 0.00 92 1013.2
20260903081322 75 225 1.0 4.0 0.00 0.05 0.00 92 1013.3
20260903080824 75 197 1.0 4.0 0.00 0.05 0.00 92 1013.3
20260903080324 75 200 1.0 5.0 0.00 0.05 0.00 92 1013.2
20260903075821 75 176 2.0 5.0 0.00 0.05 0.00 92 1013.2
20260903075321 75 192 2.0 5.0 0.00 0.05 0.00 92 1013.3
20260903074821 75 222 1.0 5.0 0.00 0.05 0.00 92 1013.4
20260903074323 75 210 1.0 4.0 0.00 0.05 0.00 92 1013.5
20260903073817 75 188 2.0 5.0 0.00 0.05 0.00 92 1013.5
20260903073319 75 215 1.0 5.0 0.00 0.05 0.00 92 1013.4
20260903072318 75 221 0.0 2.0 0.00 0.05 0.00 92 1013.3
20260903070814 75 226 1.0 6.0 0.00 0.05 0.00 92 1013.3
20260903070314 75 200 1.0 2.0 0.00 0.05 0.00 92 1013.3
20260903065814 75 195 0.0 4.0 0.00 0.05 0.00 92 1013.3
20260903064814 75 191 1.0 4.0 0.00 0.05 0.00 92 1013.4
20260903064315 75 208 0.0 4.0 0.00 0.05 0.00 92 1013.4
20260903063810 75 210 1.0 6.0 0.00 0.05 0.00 92 1013.4
20260903062808 75 225 2.0 5.0 0.00 0.05 0.00 92 1013.5
20260903062301 75 195 2.0 6.0 0.00 0.05 0.00 92 1013.5
20260903061759 75 210 1.0 6.0 0.00 0.05 0.00 92 1013.4
20260903061301 75 222 1.0 5.0 0.00 0.05 0.00 92 1013.5
20260903060759 75 225 0.0 3.0 0.00 0.05 0.00 92 1013.6
20260903060300 75 208 0.0 0.0 0.00 0.05 0.00 92 1013.6
20260903055800 74 208 0.0 1.0 0.00 0.05 0.00 92 1013.6
20260903055258 74 218 0.0 1.0 0.00 0.05 0.00 92 1013.7
20260903054758 74 203 0.0 0.0 0.00 0.05 0.00 92 1013.7
20260903054257 74 203 0.0 0.0 0.00 0.05 0.00 92 1013.7
20260903052749 74 203 0.0 2.0 0.00 0.05 0.00 92 1013.8
20260903051747 74 194 0.0 2.0 0.00 0.05 0.00 91 1013.7
20260903050748 74 134 0.0 0.0 0.00 0.05 0.00 91 1013.9
20260903050240 74 134 0.0 1.0 0.00 0.05 0.00 91 1013.7
20260903045740 74 134 0.0 1.0 0.00 0.05 0.00 91 1013.9
20260903045240 74 88 0.0 0.0 0.00 0.05 0.00 91 1013.9
20260903044737 74 87 0.0 2.0 0.00 0.05 0.00 91 1014.0
20260903044239 75 88 0.0 2.0 0.00 0.05 0.00 91 1014.1
20260903043236 75 87 0.0 2.0 0.00 0.05 0.00 91 1014.1
20260903042737 75 92 0.0 2.0 0.00 0.05 0.00 91 1014.1
20260903042229 74 103 0.0 1.0 0.00 0.05 0.00 91 1014.2
20260903041227 74 103 0.0 0.0 0.00 0.05 0.00 92 1014.2
20260903040724 74 103 0.0 0.0 0.00 0.05 0.00 92 1014.2
20260903040225 74 103 0.0 0.0 0.00 0.05 0.00 92 1014.3
20260903035721 74 103 0.0 0.0 0.00 0.05 0.05 91 1014.2
20260903035219 74 103 0.0 0.0 0.00 0.05 0.05 91 1014.1
20260903034720 74 103 0.0 1.0 0.00 0.05 0.05 91 1014.2
20260903034220 74 103 0.0 1.0 0.00 0.05 0.05 91 1014.3
20260903033718 74 103 0.0 1.0 0.00 0.05 0.05 91 1014.3
20260903033217 74 103 0.0 1.0 0.00 0.05 0.05 91 1014.3
20260903032210 74 197 0.0 1.0 0.00 0.05 0.05 91 1014.3
20260903031708 74 89 0.0 2.0 0.00 0.05 0.05 91 1014.4
20260903031205 74 77 1.0 5.0 0.00 0.05 0.05 91 1014.2
20260903030705 74 79 1.0 5.0 0.00 0.05 0.05 91 1014.2
20260903030158 74 80 1.0 5.0 0.00 0.05 0.05 91 1014.3
20260903025658 74 90 2.0 5.0 0.00 0.05 0.05 91 1014.1
20260903024659 75 65 1.0 4.0 0.00 0.05 0.05 91 1014.3
20260903023659 74 20 2.0 6.0 0.00 0.05 0.05 92 1014.5
20260903023154 74 72 2.0 6.0 0.00 0.05 0.05 91 1014.5
20260903022655 74 90 2.0 5.0 0.00 0.05 0.05 91 1014.3
20260903022154 75 79 2.0 5.0 0.00 0.05 0.05 91 1014.1
20260903021653 75 65 2.0 7.0 0.00 0.05 0.05 91 1014.1
20260903021151 75 80 3.0 7.0 0.00 0.05 0.05 90 1013.9
20260903020651 76 87 2.0 7.0 0.00 0.05 0.05 90 1013.9
20260903020144 76 86 2.0 4.0 0.00 0.05 0.05 90 1013.8
20260903015644 76 70 1.0 3.0 0.00 0.05 0.05 89 1013.9
20260903014646 76 101 0.0 1.0 0.00 0.05 0.05 89 1013.7
20260903014145 76 184 0.0 0.0 0.00 0.05 0.05 89 1013.8
20260903013647 76 184 0.0 2.0 0.00 0.05 0.05 88 1013.8
20260903012637 76 99 0.0 2.0 0.00 0.05 0.05 87 1014.1
20260903012136 76 92 0.0 0.0 0.00 0.05 0.05 87 1014.1
20260903011636 76 91 0.0 2.0 0.00 0.05 0.05 86 1014.1
20260903011137 77 92 1.0 2.0 0.00 0.05 0.05 86 1014.2
20260903010636 77 91 1.0 4.0 0.00 0.05 0.05 86 1014.2
20260903005633 77 82 0.0 4.0 0.00 0.05 0.05 85 1014.4
20260903005132 77 165 0.0 0.0 0.00 0.05 0.05 85 1014.2
20260903004628 77 165 0.0 2.0 0.00 0.05 0.05 85 1014.2
20260903004130 77 165 0.0 2.0 0.00 0.05 0.05 85 1014.2
20260903003126 77 201 0.0 2.0 0.00 0.05 0.05 85 1013.9
20260903002628 77 219 0.0 2.0 0.00 0.05 0.05 85 1013.7
20260903002128 77 221 0.0 0.0 0.00 0.05 0.05 86 1013.8
20260903001626 77 221 0.0 0.0 0.00 0.05 0.05 86 1013.7
20260903001127 77 221 0.0 0.0 0.00 0.05 0.05 86 1013.8
20260903000628 77 221 0.0 0.0 0.00 0.05 0.05 85 1013.9
20260903000126 77 221 0.0 0.0 0.00 0.05 0.05 85 1014.0
20260902235622 77 221 0.0 0.0 0.00 0.05 0.05 84 1014.0
20260902235122 77 221 0.0 0.0 0.00 0.05 0.05 84 1014.0
20260902234623 78 221 0.0 0.0 0.00 0.05 0.05 84 1014.1
20260902234123 78 221 0.0 0.0 0.00 0.05 0.05 83 1014.0
20260902233621 78 222 0.0 0.0 0.00 0.05 0.05 83 1013.8
20260902232615 78 221 0.0 3.0 0.00 0.05 0.05 82 1013.7
20260902232112 78 191 1.0 3.0 0.00 0.05 0.05 81 1013.9
20260902231612 79 212 0.0 3.0 0.00 0.05 0.05 80 1013.9
20260902231113 79 211 0.0 2.0 0.00 0.05 0.05 79 1013.9
20260902230613 79 203 0.0 2.0 0.00 0.05 0.05 79 1013.8
20260902230114 79 204 1.0 3.0 0.00 0.05 0.05 78 1014.0
20260902225610 79 208 1.0 3.0 0.00 0.05 0.05 77 1014.0
20260902225108 80 187 0.0 2.0 0.00 0.05 0.05 76 1014.3
20260902224107 80 187 0.0 4.0 0.00 0.05 0.05 74 1014.2
20260902223606 80 200 1.0 4.0 0.00 0.05 0.05 74 1014.2
20260902222602 80 197 1.0 3.0 0.00 0.05 0.05 75 1014.3
20260902222102 80 197 1.0 3.0 0.00 0.05 0.05 76 1014.1
20260902221604 80 205 0.0 3.0 0.00 0.05 0.05 76 1014.2
20260902220059 79 186 1.0 2.0 0.00 0.05 0.05 77 1014.4
20260902215555 78 222 0.0 2.0 0.00 0.05 0.05 79 1014.4
20260902215053 78 176 0.0 3.0 0.00 0.05 0.05 82 1014.4
20260902214549 78 164 1.0 4.0 0.00 0.05 0.05 82 1014.7
20260902213551 78 212 0.0 3.0 0.00 0.05 0.05 83 1014.7
20260902212048 77 194 0.0 3.0 0.00 0.05 0.05 83 1014.7
20260902211547 77 156 0.0 1.0 0.00 0.05 0.05 83 1014.7
20260902211048 77 177 0.0 1.0 0.00 0.05 0.05 83 1014.6
20260902210545 77 190 0.0 2.0 0.00 0.05 0.05 84 1014.6
20260902210045 77 190 0.0 2.0 0.00 0.05 0.05 83 1014.6
20260902205544 76 205 0.0 2.0 0.00 0.05 0.05 83 1014.6
20260902205041 76 221 0.0 2.0 0.00 0.05 0.05 84 1014.7
20260902204039 77 207 0.0 0.0 0.00 0.05 0.05 86 1014.6
20260902203539 77 207 0.0 1.0 0.00 0.05 0.05 86 1014.4